{"data":{"norad_id":67320,"intl_designator":"2026-002R","name":"STARLINK-36500","alt_names":[],"object_type":"PAYLOAD","status":"ACTIVE","operator":null,"country":"US","launch_date":"2026-01-04","launch_site_code":"AFETR","launch_vehicle":null,"mission":null,"orbit_class":"UNKNOWN","rcs_meters":null,"size_class":null,"mass_kg":null,"dimensions":null,"purposes":["comms"],"wikipedia_slug":null,"has_3d_model":false,"image_url":null,"decayed_at":null,"tle_current":{"epoch":"2026-09-19T10:13:10.301088Z","epoch_age_seconds":168162,"freshness":"FRESH","line1":"1 67320U 26002R   26262.42581367  .00009462  00000+0  35282-3 0  9995","line2":"2 67320  42.9996 311.5559 0000751 267.3703  92.7062 15.27588217 40768","mean_motion":15.27588217,"eccentricity":7.51e-5,"inclination_deg":42.9996,"raan_deg":311.5559,"arg_perigee_deg":267.3703,"mean_anomaly_deg":92.7062,"bstar":0.00035282,"rev_number":4076,"period_min":94.266241646455,"perigee_km":482.50921826788,"apogee_km":483.53976472391,"semimajor_km":6861.1614914959,"source":"CELESTRAK","updated_at":"2026-09-20T09:00:43.506178Z"}}}